Location: *
(24.1434°N, 56.8729°E)
Time: 18:50:46
(UTC+00:00)

Meteor 1-16 Rocket - Pass Details

Date: 09 April 2020
Orbit: 790 x 907 km, 81.2° (Epoch: 06 June)

Event Time Altitude Azimuth Distance (km) Brightness Sun altitude
Rises 15:00:19 0° 178° (S) 3,279 7.1 -7.2°
Reaches altitude 10° 15:02:41 10° 175° (S) 2,360 6.4 -7.7°
Maximum altitude 15:07:56 65° 94° (E) 885 4.1 -8.9°
Drops below altitude 10° 15:13:21 10° 14° (NNE) 2,428 6.6 -10.1°
Sets 15:15:48 0° 11° (NNE) 3,381 7.4 -10.6°
